Regional Weather Roundup
Issued by NWS

Home | Current Version | Previous Version | Graphics & Text | Print | Product List | Glossary Off
Versions: 1 2 3 4 5 6 7 8 9 10 11 12 13 14 15 16 17 18 19 20 21 22 23 24 25 26 27 28 29 30 31 32 33 34 35 36 37 38 39 40 41 42 43 44 45 46 47 48 49 50

385
ASUS43 KMKX 212000
RWRWI

WISCONSIN REGIONAL WEATHER ROUNDUP
NATIONAL WEATHER SERVICE MILWAUKEE/SULLIVAN WI
300 PM CDT THU SEP 21 2017

NOTE: "FAIR" INDICATES FEW OR NO CLOUDS BELOW 12,000 FEET WITH NO
SIGNIFICANT WEATHER AND/OR OBSTRUCTIONS TO VISIBILITY.

WIZ001-002-006>008-014>016-023>028-212100-
NORTHWEST WISCONSIN

CITY           SKY/WX    TMP DP  RH WIND       PRES   REMARKS
SUPERIOR ARPT  MOSUNNY   65  59  81 E12G20    29.95S
ASHLAND        SUNNY     72  59  63 NE13      29.96F
HAYWARD        SUNNY     78  59  51 S13       29.93F
SIREN          SUNNY     80  56  43 SE12      29.90F HX  80
CUMBERLAND     SUNNY     77  61  57 SE12      29.92F
RICE LAKE      MOSUNNY   79  65  62 SE12G20   29.93F HX  80
CHETEK         MOSUNNY   78  70  75 S10G17    29.93F HX  80
LADYSMITH      MOSUNNY   79  68  68 S6        29.97F HX  81
EAU CLAIRE     NOT AVBL
MENOMONIE      MOSUNNY   80  68  67 E12G17    29.91F HX  82
NEW RICHMOND   SUNNY     79  63  57 SE12G18   29.90F HX  80
OSCEOLA        SUNNY     80  63  55 SE15      29.91F HX  81
$$

WIZ003>005-009-010-017-018-212100-
NORTH CENTRAL WISCONSIN

CITY           SKY/WX    TMP DP  RH WIND       PRES   REMARKS
MANITOWISH WTR SUNNY     76  65  69 SE7       29.99F
ARBOR VITAE    SUNNY     78  65  65 SE8       29.99F HX  80
WOODRUFF       SUNNY     78  65  65 SE8       29.99F HX  80
RHINELANDER    PTSUNNY   79  66  64 S5        30.00F HX  81
EAGLE RIVER    SUNNY     78  62  56 S8        30.00F HX  80
LAND O LAKES   SUNNY     78  63  58 SE6       30.02F HX  80
PHILLIPS       MOSUNNY   78  66  66 SE10      29.96F HX  80
TOMAHAWK       PTSUNNY   78  65  65 SE5       29.99F HX  80
MEDFORD        CLOUDY    73  67  81 S13       29.99S
MERRILL        CLOUDY    76  69  76 S8        29.99F
$$

WIZ029-030-035-036-043>047-212100-
CENTRAL WISCONSIN

CITY           SKY/WX    TMP DP  RH WIND       PRES   REMARKS
WAUSAU         CLOUDY    73  67  81 SE13      29.98F
MOSINEE        CLOUDY    72  68  88 SE9       30.01F
MARSHFIELD     PTSUNNY   74  66  76 SE10      29.98F
STEVENS POINT  CLOUDY    72  69  90 E6        30.00F
WAUPACA        CLOUDY    82  71  70 SE6       29.99F HX  86
WAUTOMA        MOSUNNY   82  68  62 S9        29.99F HX  85
WISC RAPIDS    MOSUNNY   81  69  67 S8        29.99S HX  84
CAMP DOUGLAS   NOT AVBL
$$

WIZ011>013-019>022-031-037>040-048>050-212100-
NORTHEAST WISCONSIN

CITY           SKY/WX    TMP DP  RH WIND       PRES   REMARKS
ANTIGO         CLOUDY    73  67  83 SE13      30.03S
SHAWANO        CLOUDY    76  69  79 SE6       30.00F
OCONTO         CLOUDY    74  68  79 SE5       30.01S
STURGEON BAY   CLOUDY    78  69  73 E6        30.02S HAZE    HX  80
GREEN BAY      CLOUDY    81  72  74 CALM      29.99F HX  85
MANITOWOC      MOSUNNY   73  67  81 SE8       30.02F
APPLETON       PTSUNNY   81  64  57 S9        29.99F HX  82
CLINTONVILLE   CLOUDY    77  66  69 SE7       30.00
OSHKOSH        MOSUNNY   83  66  56 S13       29.99F HX  85
$$

WIZ032>034-041-042-053>061-212100-
SOUTHWEST WISCONSIN

CITY           SKY/WX    TMP DP  RH WIND       PRES   REMARKS
LA CROSSE      NOT AVBL
SPARTA         SUNNY     82  65  55 S9        29.95S HX  83
VIROQUA        SUNNY     82  65  56 S12       29.96F HX  84
BOSCOBEL       SUNNY     88  62  41 VRB6      29.93F HX  88
PRAIRIE DU CHI CLOUDY    86  59  39 SE7       29.91F HX  85
PLATTEVILLE    MOSUNNY   85  62  45 S10G17    29.97F HX  86
$$

WIZ056-057-062-063-064-067-068-212100-
SOUTH CENTRAL WISCONSIN

CITY           SKY/WX    TMP DP  RH WIND       PRES   REMARKS
REEDSBURG      CLOUDY    83  66  57 S10G17    29.97F HX  85
BARABOO/DELLS  CLOUDY    82  64  54 S13       29.98F HX  83
LONE ROCK      NOT AVBL
MINERAL POINT  MOSUNNY   86  64  48 SE8       29.98F HX  87
MADISON        CLOUDY    83  64  52 SE9       29.97F HX  84
MIDDLETON      CLOUDY    83  65  53 SE9       29.99F HX  85
WATERTOWN      CLOUDY    83  68  61 E5        29.99F HX  86
MONROE         CLOUDY    82  61  47 SE10G16   29.99S HX  83
JANESVILLE     MOSUNNY   91  57  31 SE7       29.97F HX  90
$$

WIZ051-052-058>065-066-070>072-212100-
SOUTHEAST WISCONSIN

CITY           SKY/WX    TMP DP  RH WIND       PRES   REMARKS
MILWAUKEE      CLOUDY    84  68  58 SE9       30.01S HX  87
WAUKESHA       SUNNY     82  64  54 E7        30.02F HX  84
MILWAUKEE/TIMM SUNNY     84  63  48 SE5       30.02S HX  85
RACINE         CLOUDY    82  69  64 E7        30.03S HX  85
BURLINGTON     MOSUNNY   91  66  43 SE9       29.99F HX  94
KENOSHA        PTSUNNY   89  67  47 SE10      30.01F HX  92
FOND DU LAC    CLOUDY    84  63  49 S7        30.00F HX  85
SHEBOYGAN      CLOUDY    83  71  67 S6        30.01F HX  87
WEST BEND        N/A     81  68  65 CALM      30.01F HX  83
JUNEAU         MOSUNNY   82  65  55 SE7       30.01F HX  84
$$

LSZ147-162-212100-
LAKE SUPERIOR

STATION/POSITION TIME  TEMP    WIND        PRES    WAVE
                       AIR SEA DIR/SP/G            HT/PER
                 (UTC) (F)     (DEG/KT/KT) (MB)    (FT/S)
W MID LAKE BUOY  1850   54 55   40/ 12/ 14 1016.1F   1
DEVILS ISLAND    1900   59      60/ 13/ 15 1015.7F
PORT WING        1840   74      30/ 18/ 20 1014.6F
SAXON HARBOR     1940   63      40/ 10/ 12 1014.2F
$$

LMZ867-665-643>646-212100-
LAKE MICHIGAN

STATION/POSITION TIME  TEMP    WIND        PRES    WAVE
                       AIR SEA DIR/SP/G            HT/PER
                 (UTC) (F)     (DEG/KT/KT) (MB)    (FT/S)
S GREEN BAY BUOY 1930   68 68   40/  4/  6 1016.2F
N MID LAKE BUOY  1850   66 67   80/  6/  8 1017.0F   1/ 5
NORTHPORT PIER   1940   70     140/  6/  7 1016.3S
KEWAUNEE LAKESHO 1930   67      80/  3/  4 1016.0R
SHEBOYGAN LAKESH 1900   68     100/  4/  4 1016.2F
PORT WASHINGTON  1940   72     150/  4/  6 1017.3S
ATWATER BUOY     1809   70 67  140/  4/  4 1016.9F
MILWAUKEE LAKESH 1930   74      70/  1/  1   N/A
S MID LAKE BUOY  1850   72 72  110/  6/  6 1016.9S   1
KENOSHA   LAKESH 1900   73     330/  2/  5 1015.9
$$

TC  - TEMPERATURE IN CELSIUS
VSB - VISIBILITY IN STATUTE MILES
WCI - WIND CHILL INDEX
HX  - HEAT INDEX





USA.gov is the U.S. government's official web portal to all federal, state and local government web resources and services.